Wetterdaten: Mittwoch, 18.04.2018
Datum Zeit Temp. A. Aussen2m Boden Feuchte A. Feuchte 2 Luftdruck Regen Wind Richtung Richtung Sonnenschein
18.04.2018 00:00 14,6 C 14,4 C 10,8 C 73 % 74 % 1025,8 hPa 0,0 l/m 0,0 km/h (0 Bft) N-NW 340 0 min
18.04.2018 00:05 14,5 C 14,3 C 10,8 C 73 % 74 % 1025,8 hPa 0,0 l/m 0,0 km/h (0 Bft) O 90 0 min
18.04.2018 00:10 14,3 C 14,2 C 10,8 C 74 % 74 % 1025,8 hPa 0,0 l/m 0,0 km/h (0 Bft) O 90 0 min
18.04.2018 00:15 14,2 C 14,0 C 10,8 C 74 % 75 % 1025,8 hPa 0,0 l/m 0,0 km/h (0 Bft) O 90 0 min
18.04.2018 00:20 14,0 C 13,8 C 10,8 C 76 % 76 % 1025,8 hPa 0,0 l/m 1,2 km/h (1 Bft) O-SO 115 0 min
18.04.2018 00:25 14,1 C 13,8 C 10,8 C 75 % 76 % 1025,8 hPa 0,0 l/m 0,0 km/h (0 Bft) O 85 0 min
18.04.2018 00:30 14,0 C 13,8 C 10,8 C 75 % 76 % 1024,8 hPa 0,0 l/m 0,0 km/h (0 Bft) N-NO 20 0 min
18.04.2018 00:35 13,9 C 13,8 C 10,8 C 76 % 76 % 1024,8 hPa 0,0 l/m 0,0 km/h (0 Bft) N-NO 20 0 min
18.04.2018 00:40 13,8 C 13,6 C 10,8 C 76 % 76 % 1024,8 hPa 0,0 l/m 0,0 km/h (0 Bft) O-NO 60 0 min
18.04.2018 00:45 13,8 C 13,5 C 10,8 C 77 % 77 % 1025,8 hPa 0,0 l/m 0,0 km/h (0 Bft) O 95 0 min
18.04.2018 00:50 13,7 C 13,5 C 10,8 C 77 % 77 % 1025,8 hPa 0,0 l/m 0,0 km/h (0 Bft) N-NO 20 0 min
18.04.2018 00:55 13,6 C 13,4 C 10,8 C 77 % 77 % 1025,8 hPa 0,0 l/m 0,0 km/h (0 Bft) N-NW 330 0 min
18.04.2018 01:00 13,4 C 13,1 C 10,8 C 77 % 77 % 1024,8 hPa 0,0 l/m 0,0 km/h (0 Bft) W-NW 285 0 min
18.04.2018 01:05 13,2 C 13,0 C 10,8 C 78 % 78 % 1024,8 hPa 0,0 l/m 0,0 km/h (0 Bft) W 275 0 min
18.04.2018 01:10 13,1 C 12,8 C 10,8 C 79 % 79 % 1024,8 hPa 0,0 l/m 0,0 km/h (0 Bft) SO 140 0 min
18.04.2018 01:15 13,1 C 12,7 C 10,8 C 80 % 79 % 1024,8 hPa 0,0 l/m 0,0 km/h (0 Bft) SO 130 0 min
18.04.2018 01:20 13,0 C 12,6 C 10,8 C 80 % 79 % 1024,8 hPa 0,0 l/m 0,0 km/h (0 Bft) O-SO 120 0 min
18.04.2018 01:25 13,2 C 12,6 C 10,8 C 79 % 81 % 1024,8 hPa 0,0 l/m 2,4 km/h (1 Bft) O-SO 120 0 min
18.04.2018 01:30 13,3 C 12,7 C 10,8 C 79 % 81 % 1025,8 hPa 0,0 l/m 1,2 km/h (1 Bft) O-SO 115 0 min
18.04.2018 01:35 13,3 C 12,7 C 10,8 C 79 % 80 % 1025,8 hPa 0,0 l/m 0,6 km/h (0 Bft) O-SO 115 0 min
18.04.2018 01:40 13,2 C 12,7 C 10,8 C 79 % 80 % 1025,8 hPa 0,0 l/m 0,0 km/h (0 Bft) O-SO 110 0 min
18.04.2018 01:45 13,1 C 12,8 C 10,8 C 79 % 80 % 1025,8 hPa 0,0 l/m 0,6 km/h (0 Bft) O-NO 70 0 min
18.04.2018 01:50 13,1 C 12,8 C 10,8 C 80 % 80 % 1025,8 hPa 0,0 l/m 0,0 km/h (0 Bft) O-SO 120 0 min
18.04.2018 01:55 13,1 C 12,8 C 10,8 C 80 % 80 % 1025,8 hPa 0,0 l/m 0,0 km/h (0 Bft) S 175 0 min
18.04.2018 02:00 13,0 C 12,6 C 10,8 C 81 % 79 % 1025,8 hPa 0,0 l/m 0,0 km/h (0 Bft) S 175 0 min
18.04.2018 02:05 12,8 C 12,4 C 10,8 C 81 % 79 % 1025,8 hPa 0,0 l/m 0,0 km/h (0 Bft) S 175 0 min
18.04.2018 02:10 12,6 C 12,2 C 10,8 C 82 % 79 % 1025,8 hPa 0,0 l/m 0,0 km/h (0 Bft) S 175 0 min
18.04.2018 02:15 12,5 C 12,2 C 10,8 C 82 % 80 % 1025,8 hPa 0,0 l/m 0,0 km/h (0 Bft) S-SO 165 0 min
18.04.2018 02:20 12,4 C 12,1 C 10,8 C 83 % 82 % 1025,8 hPa 0,0 l/m 0,0 km/h (0 Bft) O-NO 70 0 min
18.04.2018 02:25 12,4 C 12,1 C 10,8 C 83 % 82 % 1025,8 hPa 0,0 l/m 0,0 km/h (0 Bft) O 100 0 min
18.04.2018 02:30 12,4 C 12,1 C 10,8 C 84 % 83 % 1025,8 hPa 0,0 l/m 0,0 km/h (0 Bft) NO 50 0 min
18.04.2018 02:35 12,4 C 12,2 C 10,8 C 85 % 83 % 1025,8 hPa 0,0 l/m 0,0 km/h (0 Bft) O 95 0 min
18.04.2018 02:40 12,3 C 12,2 C 10,8 C 85 % 83 % 1025,8 hPa 0,0 l/m 0,0 km/h (0 Bft) NO 50 0 min
18.04.2018 02:45 12,3 C 12,1 C 10,8 C 86 % 84 % 1025,8 hPa 0,0 l/m 0,0 km/h (0 Bft) O-SO 110 0 min
18.04.2018 02:50 12,2 C 12,1 C 10,8 C 86 % 84 % 1025,8 hPa 0,0 l/m 0,0 km/h (0 Bft) O-SO 105 0 min
18.04.2018 02:55 12,2 C 12,0 C 10,8 C 86 % 84 % 1025,8 hPa 0,0 l/m 3,0 km/h (1 Bft) SO 125 0 min
18.04.2018 03:00 12,2 C 12,0 C 10,8 C 87 % 85 % 1026,8 hPa 0,0 l/m 1,8 km/h (1 Bft) O-SO 120 0 min
18.04.2018 03:05 12,2 C 12,0 C 10,8 C 87 % 85 % 1026,8 hPa 0,0 l/m 4,8 km/h (1 Bft) S-SO 155 0 min
18.04.2018 03:10 12,4 C 12,1 C 10,8 C 85 % 85 % 1026,8 hPa 0,0 l/m 4,8 km/h (1 Bft) SO 140 0 min
18.04.2018 03:15 12,7 C 12,2 C 10,8 C 83 % 85 % 1026,8 hPa 0,0 l/m 3,6 km/h (1 Bft) S-SO 155 0 min
18.04.2018 03:20 12,9 C 12,2 C 10,8 C 82 % 84 % 1026,8 hPa 0,0 l/m 4,2 km/h (1 Bft) S-SO 150 0 min
18.04.2018 03:25 12,7 C 12,3 C 10,8 C 82 % 84 % 1026,8 hPa 0,0 l/m 3,0 km/h (1 Bft) O-SO 110 0 min
18.04.2018 03:30 12,4 C 12,2 C 10,8 C 84 % 83 % 1025,8 hPa 0,0 l/m 2,4 km/h (1 Bft) O 100 0 min
18.04.2018 03:35 12,2 C 12,1 C 10,8 C 85 % 84 % 1025,8 hPa 0,0 l/m 1,8 km/h (1 Bft) O-SO 110 0 min
18.04.2018 03:40 12,1 C 12,0 C 10,8 C 86 % 85 % 1025,8 hPa 0,0 l/m 0,0 km/h (0 Bft) O-SO 105 0 min
18.04.2018 03:45 12,0 C 12,0 C 10,8 C 86 % 85 % 1026,8 hPa 0,0 l/m 0,6 km/h (0 Bft) O-SO 110 0 min
18.04.2018 03:50 12,0 C 11,8 C 10,8 C 86 % 85 % 1026,8 hPa 0,0 l/m 3,0 km/h (1 Bft) O-SO 110 0 min
18.04.2018 03:55 12,0 C 11,8 C 10,8 C 86 % 86 % 1026,8 hPa 0,0 l/m 1,8 km/h (1 Bft) O-SO 110 0 min
18.04.2018 04:00 12,1 C 11,8 C 10,8 C 86 % 86 % 1025,8 hPa 0,0 l/m 3,0 km/h (1 Bft) O 90 0 min
18.04.2018 04:05 12,0 C 11,8 C 10,8 C 87 % 86 % 1025,8 hPa 0,0 l/m 3,6 km/h (1 Bft) O 100 0 min
18.04.2018 04:10 12,0 C 11,8 C 10,8 C 87 % 86 % 1025,8 hPa 0,0 l/m 1,8 km/h (1 Bft) O-SO 115 0 min
18.04.2018 04:15 11,9 C 11,8 C 10,8 C 87 % 86 % 1026,8 hPa 0,0 l/m 1,2 km/h (1 Bft) O 95 0 min
18.04.2018 04:20 11,8 C 11,7 C 10,8 C 87 % 86 % 1026,8 hPa 0,0 l/m 0,0 km/h (0 Bft) O-NO 60 0 min
18.04.2018 04:25 11,7 C 11,6 C 10,8 C 87 % 85 % 1026,8 hPa 0,0 l/m 0,0 km/h (0 Bft) O 90 0 min
18.04.2018 04:30 11,5 C 11,4 C 10,8 C 87 % 85 % 1026,8 hPa 0,0 l/m 0,0 km/h (0 Bft) O 80 0 min
18.04.2018 04:35 11,4 C 11,4 C 10,8 C 88 % 85 % 1026,8 hPa 0,0 l/m 0,0 km/h (0 Bft) O-NO 70 0 min
18.04.2018 04:40 11,4 C 11,2 C 10,8 C 87 % 85 % 1026,8 hPa 0,0 l/m 0,0 km/h (0 Bft) O-SO 120 0 min
18.04.2018 04:45 11,3 C 11,1 C 10,8 C 87 % 85 % 1026,8 hPa 0,0 l/m 0,0 km/h (0 Bft) O-SO 110 0 min
18.04.2018 04:50 11,3 C 11,0 C 10,8 C 87 % 85 % 1026,8 hPa 0,0 l/m 0,0 km/h (0 Bft) O-NO 65 0 min
18.04.2018 04:55 11,1 C 10,8 C 10,8 C 86 % 85 % 1026,8 hPa 0,0 l/m 0,0 km/h (0 Bft) O-SO 105 0 min
18.04.2018 05:00 11,0 C 10,6 C 10,8 C 87 % 85 % 1026,8 hPa 0,0 l/m 0,0 km/h (0 Bft) O 85 0 min
18.04.2018 05:05 11,0 C 10,6 C 10,8 C 87 % 85 % 1026,8 hPa 0,0 l/m 1,2 km/h (1 Bft) O-SO 105 0 min
18.04.2018 05:10 11,0 C 10,6 C 10,8 C 86 % 86 % 1026,8 hPa 0,0 l/m 1,8 km/h (1 Bft) O-SO 105 0 min
18.04.2018 05:15 11,0 C 10,6 C 10,8 C 86 % 86 % 1026,8 hPa 0,0 l/m 1,2 km/h (1 Bft) O-SO 115 0 min
18.04.2018 05:20 11,0 C 10,6 C 10,8 C 85 % 86 % 1026,8 hPa 0,0 l/m 1,2 km/h (1 Bft) O-SO 120 0 min
18.04.2018 05:25 11,0 C 10,7 C 10,8 C 85 % 86 % 1026,8 hPa 0,0 l/m 2,4 km/h (1 Bft) O 100 0 min
18.04.2018 05:30 11,0 C 10,6 C 10,8 C 85 % 85 % 1026,8 hPa 0,0 l/m 2,4 km/h (1 Bft) O-SO 105 0 min
18.04.2018 05:35 10,9 C 10,6 C 10,8 C 85 % 85 % 1026,8 hPa 0,0 l/m 1,8 km/h (1 Bft) O-SO 115 0 min
18.04.2018 05:40 10,8 C 10,6 C 10,8 C 85 % 85 % 1026,8 hPa 0,0 l/m 0,0 km/h (0 Bft) SO 125 0 min
18.04.2018 05:45 10,7 C 10,6 C 10,8 C 85 % 85 % 1027,8 hPa 0,0 l/m 0,6 km/h (0 Bft) O-SO 120 0 min
18.04.2018 05:50 10,7 C 10,6 C 10,8 C 85 % 85 % 1027,8 hPa 0,0 l/m 2,4 km/h (1 Bft) O-SO 120 0 min
18.04.2018 05:55 10,7 C 10,6 C 10,8 C 85 % 85 % 1027,8 hPa 0,0 l/m 1,2 km/h (1 Bft) O-SO 115 0 min
18.04.2018 06:00 10,7 C 10,5 C 10,8 C 85 % 85 % 1027,8 hPa 0,0 l/m 2,4 km/h (1 Bft) O-SO 110 0 min
18.04.2018 06:05 10,7 C 10,5 C 10,8 C 85 % 85 % 1027,8 hPa 0,0 l/m 1,8 km/h (1 Bft) O 95 0 min
18.04.2018 06:10 10,6 C 10,4 C 10,8 C 85 % 85 % 1027,8 hPa 0,0 l/m 1,2 km/h (1 Bft) O-SO 120 0 min
18.04.2018 06:15 10,5 C 10,4 C 10,8 C 86 % 85 % 1027,8 hPa 0,0 l/m 1,2 km/h (1 Bft) SO 130 0 min
18.04.2018 06:20 10,5 C 10,3 C 10,8 C 86 % 85 % 1027,8 hPa 0,0 l/m 3,0 km/h (1 Bft) O-SO 120 0 min
18.04.2018 06:25 10,5 C 10,3 C 10,8 C 86 % 85 % 1027,8 hPa 0,0 l/m 2,4 km/h (1 Bft) O-SO 105 0 min
18.04.2018 06:30 10,5 C 10,3 C 10,8 C 85 % 85 % 1027,8 hPa 0,0 l/m 2,4 km/h (1 Bft) SO 125 0 min
18.04.2018 06:35 10,5 C 10,3 C 10,8 C 85 % 85 % 1027,8 hPa 0,0 l/m 2,4 km/h (1 Bft) O-SO 115 0 min
18.04.2018 06:40 10,5 C 10,3 C 10,8 C 85 % 85 % 1027,8 hPa 0,0 l/m 1,8 km/h (1 Bft) O-SO 120 0 min
18.04.2018 06:45 10,5 C 10,2 C 10,8 C 85 % 85 % 1027,8 hPa 0,0 l/m 1,8 km/h (1 Bft) SO 125 0 min
18.04.2018 06:50 10,4 C 10,2 C 10,8 C 85 % 85 % 1027,8 hPa 0,0 l/m 3,6 km/h (1 Bft) SO 135 0 min
18.04.2018 06:55 10,4 C 10,2 C 10,8 C 85 % 85 % 1027,8 hPa 0,0 l/m 1,8 km/h (1 Bft) O 90 0 min
18.04.2018 07:00 10,4 C 10,2 C 10,8 C 85 % 85 % 1027,8 hPa 0,0 l/m 1,8 km/h (1 Bft) O 95 0 min
18.04.2018 07:05 10,5 C 10,2 C 10,8 C 85 % 85 % 1027,8 hPa 0,0 l/m 3,6 km/h (1 Bft) O-SO 110 0 min
18.04.2018 07:10 10,6 C 10,2 C 10,8 C 85 % 86 % 1027,8 hPa 0,0 l/m 3,0 km/h (1 Bft) O-SO 110 0 min
18.04.2018 07:15 10,6 C 10,2 C 10,8 C 85 % 86 % 1027,8 hPa 0,0 l/m 3,6 km/h (1 Bft) O 90 0 min
18.04.2018 07:20 10,6 C 10,3 C 10,8 C 84 % 85 % 1027,8 hPa 0,0 l/m 3,6 km/h (1 Bft) O-SO 105 0 min
18.04.2018 07:25 10,6 C 10,3 C 10,8 C 84 % 85 % 1027,8 hPa 0,0 l/m 2,4 km/h (1 Bft) SO 140 0 min
18.04.2018 07:30 10,6 C 10,3 C 10,8 C 84 % 85 % 1027,8 hPa 0,0 l/m 2,4 km/h (1 Bft) SO 140 0 min
18.04.2018 07:35 10,6 C 10,4 C 10,8 C 84 % 85 % 1027,8 hPa 0,0 l/m 2,4 km/h (1 Bft) SO 140 0 min
18.04.2018 07:40 10,8 C 10,4 C 10,8 C 83 % 85 % 1027,8 hPa 0,0 l/m 2,4 km/h (1 Bft) O-SO 115 0 min
18.04.2018 07:45 11,0 C 10,5 C 10,8 C 83 % 85 % 1028,8 hPa 0,0 l/m 1,8 km/h (1 Bft) O-SO 120 0 min
18.04.2018 07:50 11,3 C 10,8 C 10,8 C 82 % 85 % 1028,8 hPa 0,0 l/m 1,2 km/h (1 Bft) SO 140 4 min
18.04.2018 07:55 11,4 C 11,1 C 10,8 C 82 % 84 % 1028,8 hPa 0,0 l/m 1,8 km/h (1 Bft) O-SO 115 1 min
18.04.2018 08:00 11,8 C 11,3 C 10,8 C 81 % 84 % 1027,8 hPa 0,0 l/m 3,0 km/h (1 Bft) SO 135 5 min
18.04.2018 08:05 12,1 C 11,7 C 10,8 C 80 % 83 % 1027,8 hPa 0,0 l/m 2,4 km/h (1 Bft) O-SO 110 3 min
18.04.2018 08:10 12,5 C 11,9 C 10,8 C 78 % 82 % 1027,8 hPa 0,0 l/m 2,4 km/h (1 Bft) O 95 0 min
18.04.2018 08:15 13,1 C 12,2 C 10,8 C 77 % 82 % 1027,8 hPa 0,0 l/m 1,8 km/h (1 Bft) S-SO 165 4 min
18.04.2018 08:20 13,4 C 12,4 C 10,8 C 77 % 81 % 1027,8 hPa 0,0 l/m 1,2 km/h (1 Bft) O-NO 70 6 min
18.04.2018 08:25 13,9 C 12,7 C 10,8 C 74 % 81 % 1027,8 hPa 0,0 l/m 3,6 km/h (1 Bft) S 190 4 min
18.04.2018 08:30 13,9 C 13,1 C 10,8 C 74 % 79 % 1028,8 hPa 0,0 l/m 3,6 km/h (1 Bft) S 190 3 min
18.04.2018 08:35 14,2 C 13,3 C 10,8 C 72 % 79 % 1028,8 hPa 0,0 l/m 4,8 km/h (1 Bft) S-SO 160 7 min
18.04.2018 08:40 14,2 C 13,6 C 10,8 C 72 % 77 % 1028,8 hPa 0,0 l/m 3,6 km/h (1 Bft) S-SO 160 3 min
18.04.2018 08:45 14,5 C 13,8 C 10,8 C 71 % 77 % 1028,8 hPa 0,0 l/m 3,0 km/h (1 Bft) S-SO 165 3 min
18.04.2018 08:50 14,7 C 14,2 C 10,8 C 69 % 75 % 1028,8 hPa 0,0 l/m 6,1 km/h (2 Bft) S 175 7 min
18.04.2018 08:55 15,0 C 14,5 C 10,8 C 69 % 75 % 1028,8 hPa 0,0 l/m 4,8 km/h (1 Bft) SO 140 6 min
18.04.2018 09:00 15,0 C 14,7 C 10,8 C 69 % 75 % 1028,8 hPa 0,0 l/m 4,8 km/h (1 Bft) SO 140 0 min
18.04.2018 09:05 15,5 C 14,9 C 10,8 C 69 % 74 % 1028,8 hPa 0,0 l/m 4,2 km/h (1 Bft) S-SW 205 10 min
18.04.2018 09:10 15,5 C 15,1 C 10,8 C 69 % 74 % 1028,8 hPa 0,0 l/m 6,1 km/h (2 Bft) S 170 7 min
18.04.2018 09:15 15,5 C 15,2 C 10,8 C 69 % 74 % 1028,8 hPa 0,0 l/m 6,1 km/h (2 Bft) S 170 0 min
18.04.2018 09:20 15,9 C 15,4 C 10,8 C 69 % 74 % 1028,8 hPa 0,0 l/m 4,2 km/h (1 Bft) SO 130 8 min
18.04.2018 09:25 15,9 C 15,7 C 10,8 C 69 % 72 % 1028,8 hPa 0,0 l/m 4,2 km/h (1 Bft) SO 130 0 min
18.04.2018 09:30 15,9 C 16,0 C 10,8 C 69 % 72 % 1028,8 hPa 0,0 l/m 4,2 km/h (1 Bft) SO 130 0 min
18.04.2018 09:35 15,9 C 16,1 C 10,8 C 69 % 71 % 1028,8 hPa 0,0 l/m 4,2 km/h (1 Bft) SO 130 0 min
18.04.2018 09:40 15,9 C 16,4 C 10,8 C 69 % 70 % 1028,8 hPa 0,0 l/m 4,2 km/h (1 Bft) SO 130 0 min
18.04.2018 09:45 15,9 C 16,5 C 10,8 C 69 % 70 % 1028,8 hPa 0,0 l/m 4,2 km/h (1 Bft) SO 130 0 min
18.04.2018 09:50 15,9 C 16,7 C 10,8 C 69 % 68 % 1028,8 hPa 0,0 l/m 4,2 km/h (1 Bft) SO 130 0 min
18.04.2018 09:55 15,9 C 16,9 C 10,8 C 69 % 68 % 1028,7 hPa 0,0 l/m 4,2 km/h (1 Bft) SO 130 0 min
18.04.2018 10:00 15,9 C 17,1 C 10,8 C 69 % 67 % 1028,7 hPa 0,0 l/m 4,2 km/h (1 Bft) SO 130 0 min
18.04.2018 10:05 15,9 C 17,4 C 10,8 C 69 % 67 % 1028,7 hPa 0,0 l/m 4,2 km/h (1 Bft) SO 130 0 min
18.04.2018 10:10 15,9 C 17,6 C 10,8 C 69 % 66 % 1028,7 hPa 0,0 l/m 4,2 km/h (1 Bft) SO 130 0 min
18.04.2018 10:15 15,9 C 17,8 C 10,8 C 69 % 65 % 1028,7 hPa 0,0 l/m 4,2 km/h (1 Bft) SO 130 0 min
18.04.2018 10:20 15,9 C 18,1 C 10,8 C 69 % 66 % 1028,7 hPa 0,0 l/m 4,2 km/h (1 Bft) SO 130 0 min
18.04.2018 10:25 15,9 C 18,5 C 10,8 C 69 % 65 % 1028,7 hPa 0,0 l/m 4,2 km/h (1 Bft) SO 130 0 min
18.04.2018 10:30 15,9 C 18,7 C 10,8 C 69 % 64 % 1028,7 hPa 0,0 l/m 4,2 km/h (1 Bft) SO 130 0 min
18.04.2018 10:35 15,9 C 18,9 C 10,8 C 69 % 64 % 1028,7 hPa 0,0 l/m 4,2 km/h (1 Bft) SO 130 0 min
18.04.2018 10:40 15,9 C 19,1 C 10,8 C 69 % 64 % 1028,7 hPa 0,0 l/m 4,2 km/h (1 Bft) SO 130 0 min
18.04.2018 10:45 15,9 C 19,5 C 10,8 C 69 % 62 % 1029,7 hPa 0,0 l/m 4,2 km/h (1 Bft) SO 130 0 min
18.04.2018 10:50 15,9 C 19,6 C 10,8 C 69 % 62 % 1029,7 hPa 0,0 l/m 4,2 km/h (1 Bft) SO 130 0 min
18.04.2018 10:55 15,9 C 19,8 C 10,8 C 69 % 60 % 1029,7 hPa 0,0 l/m 4,2 km/h (1 Bft) SO 130 0 min
18.04.2018 11:00 15,9 C 20,0 C 10,8 C 69 % 60 % 1028,7 hPa 0,0 l/m 4,2 km/h (1 Bft) SO 130 0 min
18.04.2018 11:05 15,9 C 20,2 C 10,8 C 69 % 59 % 1028,7 hPa 0,0 l/m 4,2 km/h (1 Bft) SO 130 0 min
18.04.2018 11:10 15,9 C 20,5 C 10,8 C 69 % 59 % 1028,7 hPa 0,0 l/m 4,2 km/h (1 Bft) SO 130 0 min
18.04.2018 11:15 15,9 C 20,6 C 10,8 C 69 % 58 % 1029,7 hPa 0,0 l/m 4,2 km/h (1 Bft) SO 130 0 min
18.04.2018 11:20 15,9 C 20,7 C 10,8 C 69 % 58 % 1029,7 hPa 0,0 l/m 4,2 km/h (1 Bft) SO 130 0 min
18.04.2018 11:25 15,9 C 20,7 C 10,8 C 69 % 61 % 1029,7 hPa 0,0 l/m 4,2 km/h (1 Bft) SO 130 0 min
18.04.2018 11:30 15,9 C 20,6 C 10,8 C 69 % 63 % 1029,7 hPa 0,0 l/m 4,2 km/h (1 Bft) SO 130 0 min
18.04.2018 11:35 15,9 C 20,8 C 10,8 C 69 % 61 % 1029,7 hPa 0,0 l/m 4,2 km/h (1 Bft) SO 130 0 min
18.04.2018 11:40 15,9 C 20,9 C 10,8 C 69 % 62 % 1029,7 hPa 0,0 l/m 4,2 km/h (1 Bft) SO 130 0 min
18.04.2018 11:45 15,9 C 20,7 C 10,8 C 69 % 59 % 1029,7 hPa 0,0 l/m 4,2 km/h (1 Bft) SO 130 0 min
18.04.2018 11:50 15,9 C 20,7 C 10,8 C 69 % 60 % 1029,7 hPa 0,0 l/m 4,2 km/h (1 Bft) SO 130 0 min
18.04.2018 11:55 15,9 C 20,7 C 10,8 C 69 % 58 % 1029,7 hPa 0,0 l/m 4,2 km/h (1 Bft) SO 130 0 min
18.04.2018 12:00 15,9 C 20,9 C 10,8 C 69 % 63 % 1028,7 hPa 0,0 l/m 4,2 km/h (1 Bft) SO 130 0 min
18.04.2018 12:05 22,0 C 21,2 C 10,8 C 53 % 60 % 1028,7 hPa 0,0 l/m 7,3 km/h (2 Bft) W-SW 240 0 min
18.04.2018 12:10 22,2 C 21,5 C 10,8 C 51 % 61 % 1028,7 hPa 0,0 l/m 7,3 km/h (2 Bft) SW 235 3 min
18.04.2018 12:15 22,2 C 21,8 C 10,8 C 51 % 59 % 1028,7 hPa 0,0 l/m 7,3 km/h (2 Bft) SW 235 0 min
18.04.2018 12:20 22,2 C 22,0 C 10,8 C 51 % 54 % 1028,7 hPa 0,0 l/m 7,3 km/h (2 Bft) SW 235 0 min
18.04.2018 12:25 22,2 C 22,1 C 10,8 C 51 % 54 % 1028,7 hPa 0,0 l/m 7,3 km/h (2 Bft) SW 235 0 min
18.04.2018 12:30 23,0 C 22,3 C 10,8 C 49 % 55 % 1028,7 hPa 0,0 l/m 6,7 km/h (2 Bft) W-SW 250 20 min
18.04.2018 12:35 23,1 C 22,8 C 10,8 C 48 % 52 % 1028,7 hPa 0,0 l/m 8,5 km/h (2 Bft) S 185 4 min
18.04.2018 12:40 23,1 C 23,0 C 10,8 C 48 % 54 % 1028,7 hPa 0,0 l/m 8,5 km/h (2 Bft) S 185 0 min
18.04.2018 12:45 23,4 C 23,3 C 10,8 C 44 % 51 % 1028,7 hPa 0,0 l/m 7,9 km/h (2 Bft) SW 215 13 min
18.04.2018 12:50 23,4 C 23,4 C 10,8 C 44 % 54 % 1028,7 hPa 0,0 l/m 7,9 km/h (2 Bft) SW 215 0 min
18.04.2018 12:55 23,4 C 23,3 C 10,8 C 44 % 52 % 1028,7 hPa 0,0 l/m 7,9 km/h (2 Bft) SW 215 0 min
18.04.2018 13:00 23,4 C 23,6 C 10,8 C 44 % 47 % 1028,7 hPa 0,0 l/m 7,9 km/h (2 Bft) SW 215 0 min
18.04.2018 13:05 24,1 C 23,6 C 10,8 C 41 % 48 % 1028,7 hPa 0,0 l/m 10,9 km/h (2 Bft) S 170 19 min
18.04.2018 13:10 24,1 C 23,8 C 10,8 C 41 % 47 % 1028,7 hPa 0,0 l/m 10,9 km/h (2 Bft) S 170 0 min
18.04.2018 13:15 24,1 C 23,8 C 10,8 C 41 % 48 % 1028,7 hPa 0,0 l/m 10,9 km/h (2 Bft) S 170 0 min
18.04.2018 13:20 24,1 C 23,8 C 10,8 C 41 % 46 % 1028,7 hPa 0,0 l/m 10,9 km/h (2 Bft) S 170 0 min
18.04.2018 13:25 24,1 C 23,6 C 10,8 C 41 % 48 % 1028,7 hPa 0,0 l/m 10,9 km/h (2 Bft) S 170 0 min
18.04.2018 13:30 25,4 C 24,1 C 10,8 C 40 % 46 % 1028,7 hPa 0,0 l/m 8,5 km/h (2 Bft) NO 40 27 min
18.04.2018 13:35 25,7 C 24,3 C 10,8 C 38 % 45 % 1028,7 hPa 0,0 l/m 6,7 km/h (2 Bft) S 175 5 min
18.04.2018 13:40 25,7 C 24,4 C 10,8 C 38 % 46 % 1028,7 hPa 0,0 l/m 6,7 km/h (2 Bft) S 175 0 min
18.04.2018 13:45 25,7 C 24,6 C 10,8 C 38 % 49 % 1027,6 hPa 0,0 l/m 6,7 km/h (2 Bft) S 175 0 min
18.04.2018 13:50 25,7 C 24,8 C 10,8 C 38 % 45 % 1027,6 hPa 0,0 l/m 6,7 km/h (2 Bft) S 175 0 min
18.04.2018 13:55 25,7 C 24,9 C 10,8 C 38 % 45 % 1027,6 hPa 0,0 l/m 6,7 km/h (2 Bft) S 175 0 min
18.04.2018 14:00 24,5 C 25,0 C 10,8 C 39 % 44 % 1027,6 hPa 0,0 l/m 12,1 km/h (2 Bft) S-SW 195 23 min
18.04.2018 14:05 24,5 C 25,2 C 10,8 C 39 % 42 % 1027,6 hPa 0,0 l/m 12,1 km/h (2 Bft) S-SW 195 0 min
18.04.2018 14:10 24,5 C 25,2 C 10,8 C 39 % 43 % 1027,6 hPa 0,0 l/m 12,1 km/h (2 Bft) S-SW 195 0 min
18.04.2018 14:15 24,5 C 25,4 C 10,8 C 39 % 41 % 1027,6 hPa 0,0 l/m 12,1 km/h (2 Bft) S-SW 195 0 min
18.04.2018 14:20 24,5 C 25,4 C 10,8 C 39 % 45 % 1027,6 hPa 0,0 l/m 12,1 km/h (2 Bft) S-SW 195 0 min
18.04.2018 14:25 24,5 C 25,4 C 10,8 C 39 % 43 % 1027,6 hPa 0,0 l/m 12,1 km/h (2 Bft) S-SW 195 0 min
18.04.2018 14:30 24,5 C 25,6 C 10,8 C 39 % 41 % 1027,6 hPa 0,0 l/m 12,1 km/h (2 Bft) S-SW 195 0 min
18.04.2018 14:35 24,5 C 25,6 C 10,8 C 39 % 40 % 1027,6 hPa 0,0 l/m 12,1 km/h (2 Bft) S-SW 195 0 min
18.04.2018 14:40 25,4 C 25,5 C 10,8 C 36 % 39 % 1027,6 hPa 0,0 l/m 10,9 km/h (2 Bft) S 170 43 min
18.04.2018 14:45 25,4 C 25,6 C 10,8 C 36 % 41 % 1027,6 hPa 0,0 l/m 10,9 km/h (2 Bft) S 170 0 min
18.04.2018 14:50 25,4 C 25,8 C 10,8 C 36 % 40 % 1027,6 hPa 0,0 l/m 10,9 km/h (2 Bft) S 170 0 min
18.04.2018 14:55 25,7 C 25,8 C 10,8 C 36 % 38 % 1027,6 hPa 0,0 l/m 9,1 km/h (2 Bft) S 185 13 min
18.04.2018 15:00 25,5 C 26,0 C 10,8 C 37 % 40 % 1027,6 hPa 0,0 l/m 13,9 km/h (3 Bft) S-SO 165 4 min
18.04.2018 15:05 25,7 C 26,0 C 10,8 C 37 % 41 % 1027,6 hPa 0,0 l/m 10,3 km/h (2 Bft) S-SW 205 8 min
18.04.2018 15:10 25,7 C 26,1 C 10,8 C 37 % 42 % 1027,6 hPa 0,0 l/m 10,3 km/h (2 Bft) S-SW 205 0 min
18.04.2018 15:15 25,7 C 26,2 C 10,8 C 37 % 40 % 1027,6 hPa 0,0 l/m 10,3 km/h (2 Bft) S-SW 205 0 min
18.04.2018 15:20 25,7 C 26,4 C 10,8 C 37 % 41 % 1027,6 hPa 0,0 l/m 10,3 km/h (2 Bft) S-SW 205 0 min
18.04.2018 15:25 25,7 C 26,4 C 10,8 C 37 % 39 % 1027,6 hPa 0,0 l/m 10,3 km/h (2 Bft) S-SW 205 0 min
18.04.2018 15:30 25,8 C 26,5 C 10,8 C 36 % 39 % 1027,6 hPa 0,0 l/m 9,7 km/h (2 Bft) NW 320 20 min
18.04.2018 15:35 26,0 C 26,5 C 10,8 C 36 % 42 % 1027,6 hPa 0,0 l/m 9,7 km/h (2 Bft) W-SW 240 5 min
18.04.2018 15:40 26,0 C 26,2 C 10,8 C 36 % 39 % 1027,6 hPa 0,0 l/m 9,7 km/h (2 Bft) W-SW 240 0 min
18.04.2018 15:45 26,0 C 26,3 C 10,8 C 36 % 42 % 1027,6 hPa 0,0 l/m 9,7 km/h (2 Bft) W-SW 240 0 min
18.04.2018 15:50 26,0 C 26,4 C 10,8 C 36 % 42 % 1027,6 hPa 0,0 l/m 9,7 km/h (2 Bft) W-SW 240 0 min
18.04.2018 15:55 26,0 C 26,3 C 10,8 C 36 % 39 % 1027,6 hPa 0,0 l/m 9,7 km/h (2 Bft) W-SW 240 0 min
18.04.2018 16:00 26,9 C 26,2 C 10,8 C 37 % 41 % 1027,6 hPa 0,0 l/m 9,7 km/h (2 Bft) S-SW 210 25 min
18.04.2018 16:05 26,4 C 26,3 C 10,8 C 37 % 41 % 1027,6 hPa 0,0 l/m 10,3 km/h (2 Bft) SW 230 8 min
18.04.2018 16:10 26,7 C 26,4 C 10,8 C 35 % 41 % 1027,6 hPa 0,0 l/m 8,5 km/h (2 Bft) S-SW 195 6 min
18.04.2018 16:15 26,6 C 26,6 C 10,8 C 36 % 42 % 1026,6 hPa 0,0 l/m 4,8 km/h (1 Bft) S-SO 160 2 min
18.04.2018 16:20 26,8 C 26,5 C 10,8 C 35 % 38 % 1026,6 hPa 0,0 l/m 10,9 km/h (2 Bft) SO 145 8 min
18.04.2018 16:25 26,8 C 26,5 C 10,8 C 35 % 42 % 1026,6 hPa 0,0 l/m 10,9 km/h (2 Bft) SO 145 0 min
18.04.2018 16:30 26,8 C 26,6 C 10,8 C 35 % 45 % 1026,6 hPa 0,0 l/m 10,9 km/h (2 Bft) SO 145 0 min
18.04.2018 16:35 26,8 C 26,6 C 10,8 C 35 % 40 % 1026,6 hPa 0,0 l/m 10,9 km/h (2 Bft) SO 145 0 min
18.04.2018 16:40 26,8 C 26,6 C 10,8 C 35 % 41 % 1026,6 hPa 0,0 l/m 10,9 km/h (2 Bft) SO 145 0 min
18.04.2018 16:45 26,8 C 26,4 C 10,8 C 35 % 42 % 1026,6 hPa 0,0 l/m 10,9 km/h (2 Bft) SO 145 0 min
18.04.2018 16:50 26,8 C 26,5 C 10,8 C 35 % 39 % 1026,6 hPa 0,0 l/m 10,9 km/h (2 Bft) SO 145 0 min
18.04.2018 16:55 26,8 C 26,7 C 10,8 C 35 % 38 % 1026,6 hPa 0,0 l/m 10,9 km/h (2 Bft) SO 145 0 min
18.04.2018 17:00 26,8 C 26,7 C 10,8 C 35 % 38 % 1026,6 hPa 0,0 l/m 10,9 km/h (2 Bft) SO 145 0 min
18.04.2018 17:05 26,8 C 26,8 C 10,8 C 35 % 38 % 1026,6 hPa 0,0 l/m 10,9 km/h (2 Bft) SO 145 0 min
18.04.2018 17:10 26,8 C 26,8 C 10,8 C 35 % 39 % 1026,6 hPa 0,0 l/m 10,9 km/h (2 Bft) SO 145 0 min
18.04.2018 17:15 26,8 C 26,7 C 10,8 C 35 % 45 % 1026,6 hPa 0,0 l/m 10,9 km/h (2 Bft) SO 145 0 min
18.04.2018 17:20 26,8 C 26,6 C 10,8 C 35 % 43 % 1026,6 hPa 0,0 l/m 10,9 km/h (2 Bft) SO 145 0 min
18.04.2018 17:25 26,8 C 26,5 C 10,8 C 35 % 48 % 1026,6 hPa 0,0 l/m 10,9 km/h (2 Bft) SO 145 0 min
18.04.2018 17:30 26,8 C 26,3 C 10,8 C 35 % 43 % 1025,6 hPa 0,0 l/m 10,9 km/h (2 Bft) SO 145 0 min
18.04.2018 17:35 26,8 C 26,1 C 10,8 C 35 % 42 % 1025,6 hPa 0,0 l/m 10,9 km/h (2 Bft) SO 145 0 min
18.04.2018 17:40 26,8 C 26,2 C 10,8 C 35 % 48 % 1025,6 hPa 0,0 l/m 10,9 km/h (2 Bft) SO 145 0 min
18.04.2018 17:45 26,8 C 26,2 C 10,8 C 35 % 41 % 1026,6 hPa 0,0 l/m 10,9 km/h (2 Bft) SO 145 0 min
18.04.2018 17:50 26,8 C 26,3 C 10,8 C 35 % 50 % 1026,6 hPa 0,0 l/m 10,9 km/h (2 Bft) SO 145 0 min
18.04.2018 17:55 26,8 C 26,2 C 10,8 C 35 % 44 % 1026,6 hPa 0,0 l/m 10,9 km/h (2 Bft) SO 145 0 min
18.04.2018 18:00 26,8 C 26,2 C 10,8 C 35 % 45 % 1025,6 hPa 0,0 l/m 10,9 km/h (2 Bft) SO 145 0 min
18.04.2018 18:05 26,8 C 26,2 C 10,8 C 35 % 38 % 1025,6 hPa 0,0 l/m 10,9 km/h (2 Bft) SO 145 0 min
18.04.2018 18:10 26,8 C 26,5 C 10,8 C 35 % 38 % 1025,6 hPa 0,0 l/m 10,9 km/h (2 Bft) SO 145 0 min
18.04.2018 18:15 26,8 C 26,5 C 10,8 C 35 % 38 % 1025,6 hPa 0,0 l/m 10,9 km/h (2 Bft) SO 145 0 min
18.04.2018 18:20 26,8 C 26,5 C 10,8 C 35 % 37 % 1025,6 hPa 0,0 l/m 10,9 km/h (2 Bft) SO 145 0 min
18.04.2018 18:25 26,8 C 26,6 C 10,8 C 35 % 35 % 1025,6 hPa 0,0 l/m 10,9 km/h (2 Bft) SO 145 0 min
18.04.2018 18:30 26,8 C 26,8 C 10,8 C 35 % 38 % 1025,6 hPa 0,0 l/m 10,9 km/h (2 Bft) SO 145 0 min
18.04.2018 18:35 26,8 C 26,8 C 10,8 C 35 % 34 % 1025,6 hPa 0,0 l/m 10,9 km/h (2 Bft) SO 145 0 min
18.04.2018 18:40 27,9 C 26,7 C 10,8 C 28 % 34 % 1025,6 hPa 0,0 l/m 4,8 km/h (1 Bft) S-SO 160 0 min
18.04.2018 18:45 28,1 C 26,6 C 10,8 C 27 % 33 % 1025,6 hPa 0,0 l/m 4,2 km/h (1 Bft) W-SW 255 8 min
18.04.2018 18:50 28,3 C 26,6 C 10,8 C 27 % 34 % 1025,6 hPa 0,0 l/m 6,1 km/h (2 Bft) S-SO 165 4 min
18.04.2018 18:55 28,0 C 26,6 C 10,8 C 27 % 33 % 1025,6 hPa 0,0 l/m 2,4 km/h (1 Bft) S-SW 200 6 min
18.04.2018 19:00 28,0 C 26,6 C 10,8 C 27 % 33 % 1025,6 hPa 0,0 l/m 2,4 km/h (1 Bft) S-SW 200 0 min
18.04.2018 19:05 27,6 C 26,7 C 10,8 C 27 % 34 % 1025,6 hPa 0,0 l/m 4,8 km/h (1 Bft) S-SW 205 7 min
18.04.2018 19:10 27,4 C 26,7 C 10,8 C 27 % 37 % 1025,6 hPa 0,0 l/m 7,3 km/h (2 Bft) S-SW 210 3 min
18.04.2018 19:15 27,3 C 26,8 C 10,8 C 32 % 42 % 1025,6 hPa 0,0 l/m 0,0 km/h (0 Bft) W-SW 250 7 min
18.04.2018 19:20 27,7 C 26,7 C 10,8 C 33 % 43 % 1025,6 hPa 0,0 l/m 0,0 km/h (0 Bft) W-SW 245 6 min
18.04.2018 19:25 27,5 C 26,6 C 10,8 C 35 % 42 % 1025,6 hPa 0,0 l/m 0,0 km/h (0 Bft) W-SW 240 4 min
18.04.2018 19:30 27,8 C 26,4 C 10,8 C 33 % 43 % 1025,6 hPa 0,0 l/m 0,0 km/h (0 Bft) S 190 6 min
18.04.2018 19:35 27,7 C 26,3 C 10,8 C 28 % 37 % 1025,6 hPa 0,0 l/m 3,6 km/h (1 Bft) O-SO 115 4 min
18.04.2018 19:40 27,5 C 26,2 C 10,8 C 28 % 34 % 1025,6 hPa 0,0 l/m 0,6 km/h (0 Bft) O-SO 115 0 min
18.04.2018 19:45 27,2 C 26,0 C 10,8 C 28 % 34 % 1025,6 hPa 0,0 l/m 2,4 km/h (1 Bft) SO 140 5 min
18.04.2018 19:50 27,1 C 26,0 C 10,8 C 28 % 34 % 1025,6 hPa 0,0 l/m 2,4 km/h (1 Bft) S-SO 165 5 min
18.04.2018 19:55 27,1 C 26,0 C 10,8 C 31 % 38 % 1025,6 hPa 0,0 l/m 0,0 km/h (0 Bft) W 270 5 min
18.04.2018 20:00 27,1 C 25,9 C 10,8 C 32 % 39 % 1025,6 hPa 0,0 l/m 0,0 km/h (0 Bft) N-NW 345 1 min
18.04.2018 20:05 26,8 C 25,8 C 10,8 C 33 % 41 % 1025,6 hPa 0,0 l/m 0,0 km/h (0 Bft) N 355 0 min
18.04.2018 20:10 26,2 C 25,4 C 10,8 C 31 % 39 % 1025,6 hPa 0,0 l/m 0,0 km/h (0 Bft) NO 55 0 min
18.04.2018 20:15 25,9 C 25,1 C 10,8 C 32 % 40 % 1025,6 hPa 0,0 l/m 0,0 km/h (0 Bft) N-NO 25 0 min
18.04.2018 20:20 25,4 C 24,9 C 10,8 C 35 % 40 % 1025,6 hPa 0,0 l/m 0,0 km/h (0 Bft) N-NW 335 0 min
18.04.2018 20:25 24,3 C 24,5 C 10,8 C 37 % 40 % 1025,6 hPa 0,0 l/m 2,4 km/h (1 Bft) N-NO 20 0 min
18.04.2018 20:30 24,2 C 24,2 C 10,8 C 36 % 39 % 1025,6 hPa 0,0 l/m 1,2 km/h (1 Bft) NO 55 0 min
18.04.2018 20:35 24,0 C 23,9 C 10,8 C 38 % 40 % 1025,7 hPa 0,0 l/m 0,0 km/h (0 Bft) NO 40 0 min
18.04.2018 20:40 23,7 C 23,8 C 10,8 C 38 % 41 % 1025,7 hPa 0,0 l/m 1,2 km/h (1 Bft) NO 45 0 min
18.04.2018 20:45 23,3 C 23,5 C 10,8 C 38 % 41 % 1025,7 hPa 0,0 l/m 3,6 km/h (1 Bft) NO 50 0 min
18.04.2018 20:50 23,2 C 23,3 C 10,8 C 38 % 40 % 1025,7 hPa 0,0 l/m 6,1 km/h (2 Bft) SO 125 0 min
18.04.2018 20:55 23,4 C 23,3 C 10,8 C 38 % 40 % 1025,7 hPa 0,0 l/m 6,1 km/h (2 Bft) SO 140 0 min
18.04.2018 21:00 23,4 C 23,3 C 10,8 C 39 % 42 % 1025,7 hPa 0,0 l/m 8,5 km/h (2 Bft) O 85 0 min
18.04.2018 21:05 23,3 C 23,2 C 10,8 C 40 % 42 % 1025,7 hPa 0,0 l/m 9,7 km/h (2 Bft) NO 45 0 min
18.04.2018 21:10 23,3 C 23,2 C 10,8 C 40 % 43 % 1025,7 hPa 0,0 l/m 14,5 km/h (3 Bft) O-NO 65 0 min
18.04.2018 21:15 23,1 C 23,0 C 10,8 C 41 % 44 % 1025,7 hPa 0,0 l/m 12,1 km/h (2 Bft) O 85 0 min
18.04.2018 21:20 23,0 C 23,0 C 10,8 C 42 % 45 % 1025,7 hPa 0,0 l/m 10,3 km/h (2 Bft) O-NO 70 0 min
18.04.2018 21:25 22,9 C 22,8 C 10,8 C 43 % 46 % 1025,7 hPa 0,0 l/m 15,1 km/h (3 Bft) SO 135 0 min
18.04.2018 21:30 22,8 C 22,8 C 10,8 C 43 % 46 % 1026,7 hPa 0,0 l/m 9,7 km/h (2 Bft) O-NO 65 0 min
18.04.2018 21:35 22,7 C 22,7 C 10,8 C 44 % 46 % 1026,7 hPa 0,0 l/m 15,1 km/h (3 Bft) O 90 0 min
18.04.2018 21:40 22,6 C 22,6 C 10,8 C 44 % 47 % 1026,7 hPa 0,0 l/m 15,1 km/h (3 Bft) O-NO 60 0 min
18.04.2018 21:45 22,6 C 22,5 C 10,8 C 44 % 47 % 1026,7 hPa 0,0 l/m 12,1 km/h (2 Bft) O 85 0 min
18.04.2018 21:50 22,6 C 22,5 C 10,8 C 44 % 47 % 1026,7 hPa 0,0 l/m 16,3 km/h (3 Bft) S-SO 155 0 min
18.04.2018 21:55 22,5 C 22,4 C 10,8 C 45 % 47 % 1026,7 hPa 0,0 l/m 12,1 km/h (2 Bft) O 90 0 min
18.04.2018 22:00 22,3 C 22,3 C 10,8 C 45 % 47 % 1026,7 hPa 0,0 l/m 9,1 km/h (2 Bft) O-NO 60 0 min
18.04.2018 22:05 22,2 C 22,2 C 10,8 C 46 % 48 % 1026,7 hPa 0,0 l/m 12,1 km/h (2 Bft) SO 130 0 min
18.04.2018 22:10 21,9 C 22,0 C 10,8 C 47 % 48 % 1026,7 hPa 0,0 l/m 9,7 km/h (2 Bft) O-NO 75 0 min
18.04.2018 22:15 21,7 C 21,9 C 10,8 C 47 % 50 % 1026,7 hPa 0,0 l/m 9,1 km/h (2 Bft) O-SO 105 0 min
18.04.2018 22:20 21,4 C 21,6 C 10,8 C 48 % 50 % 1026,7 hPa 0,0 l/m 4,2 km/h (1 Bft) NO 45 0 min
18.04.2018 22:25 21,2 C 21,4 C 10,8 C 49 % 51 % 1026,7 hPa 0,0 l/m 1,8 km/h (1 Bft) SO 135 0 min
18.04.2018 22:30 20,7 C 21,1 C 10,8 C 51 % 52 % 1025,7 hPa 0,0 l/m 4,8 km/h (1 Bft) O-SO 105 0 min
18.04.2018 22:35 20,5 C 20,8 C 10,8 C 51 % 53 % 1025,7 hPa 0,0 l/m 3,0 km/h (1 Bft) SO 125 0 min
18.04.2018 22:40 20,3 C 20,7 C 10,8 C 51 % 53 % 1025,7 hPa 0,0 l/m 2,4 km/h (1 Bft) S 175 0 min
18.04.2018 22:45 20,1 C 20,4 C 10,8 C 52 % 54 % 1025,7 hPa 0,0 l/m 0,0 km/h (0 Bft) O-SO 120 0 min
18.04.2018 22:50 19,8 C 20,1 C 10,8 C 54 % 55 % 1025,7 hPa 0,0 l/m 2,4 km/h (1 Bft) SO 140 0 min
18.04.2018 22:55 19,5 C 19,8 C 10,8 C 54 % 56 % 1025,7 hPa 0,0 l/m 2,4 km/h (1 Bft) NO 50 0 min
18.04.2018 23:00 19,4 C 19,6 C 10,8 C 55 % 57 % 1026,7 hPa 0,0 l/m 3,0 km/h (1 Bft) O-SO 105 0 min
18.04.2018 23:05 19,3 C 19,5 C 10,8 C 55 % 58 % 1026,7 hPa 0,0 l/m 0,6 km/h (0 Bft) O-SO 110 0 min
18.04.2018 23:10 19,2 C 19,4 C 10,8 C 55 % 57 % 1026,7 hPa 0,0 l/m 1,2 km/h (1 Bft) O-SO 105 0 min
18.04.2018 23:15 19,2 C 19,3 C 10,8 C 55 % 58 % 1025,7 hPa 0,0 l/m 1,2 km/h (1 Bft) O 80 0 min
18.04.2018 23:20 19,2 C 19,2 C 10,8 C 56 % 58 % 1025,7 hPa 0,0 l/m 0,6 km/h (0 Bft) O-NO 75 0 min
18.04.2018 23:25 19,0 C 19,1 C 10,8 C 56 % 58 % 1025,7 hPa 0,0 l/m 1,8 km/h (1 Bft) O-NO 60 0 min
18.04.2018 23:30 19,0 C 19,0 C 10,8 C 56 % 58 % 1025,7 hPa 0,0 l/m 0,6 km/h (0 Bft) O-NO 70 0 min
18.04.2018 23:35 18,9 C 18,8 C 10,8 C 56 % 58 % 1025,7 hPa 0,0 l/m 0,0 km/h (0 Bft) NO 40 0 min
18.04.2018 23:40 18,9 C 18,5 C 10,8 C 56 % 60 % 1025,7 hPa 0,0 l/m 0,6 km/h (0 Bft) O-NO 60 0 min
18.04.2018 23:45 18,8 C 18,2 C 10,8 C 57 % 61 % 1026,7 hPa 0,0 l/m 0,6 km/h (0 Bft) N-NO 30 0 min
18.04.2018 23:50 18,7 C 17,8 C 10,8 C 57 % 63 % 1026,7 hPa 0,0 l/m 0,0 km/h (0 Bft) N 10 0 min
18.04.2018 23:55 17,7 C 17,4 C 10,8 C 61 % 63 % 1026,7 hPa 0,0 l/m 0,0 km/h (0 Bft) W-NW 295 0 min
_ Min-Zeit 06:50 06:45 00:00 18:45 18:45 00:30 - 00:00 - - -
Minimum _ 10,4 C 10,2 C 10,8 C 27 % 33 % 1024,8 hPa - 0,0 km/h (0 Bft) - - -
_ Max-Zeit 18:50 17:05 00:00 04:35 03:55 10:45 00:00 21:50 - - 14:40
Maximum _ 28,3 C 26,8 C 10,8 C 88 % 86 % 1029,7 hPa 0,0 l/m 16,3 km/h
S-SO (3 Bft)
- - 43 min
Durchschnitt _ 18,8 C 18,9 C 10,8 C 59 % 61 % 1027,1 hPa #0,0 l/m 4,9 km/h (1 Bft) SO - #6:48 h